| time (UTC) | temp F | wind direction | speed knots | gust knots | rain 1hr in | rain 24hr in | rain mn in | humidity % | barometer mb |
| 20260905120646 | 78 | 333 | 2.6 | 2.6 | 0.00 | 0.00 | 0.00 | 94 | 1013.2 |
| 20260905120146 | 78 | 171 | 0.9 | 2.6 | 0.00 | 0.00 | 0.00 | 94 | 1013.2 |
| 20260905115646 | 78 | 292 | 1.7 | 3.5 | 0.00 | 0.00 | 0.00 | 94 | 1013.2 |
| 20260905115147 | 78 | 119 | 1.7 | 2.6 | 0.00 | 0.00 | 0.00 | 94 | 1013.2 |
| 20260905114646 | 78 | 211 | 1.7 | 3.5 | 0.00 | 0.00 | 0.00 | 94 | 1013.2 |
| 20260905114146 | 78 | 220 | 0.9 | 3.5 | 0.00 | 0.00 | 0.00 | 94 | 1013.2 |
| 20260905113647 | 78 | 167 | 0.9 | 2.6 | 0.00 | 0.00 | 0.00 | 94 | 1013.2 |
| 20260905113146 | 78 | 234 | 1.7 | 2.6 | 0.00 | 0.00 | 0.00 | 94 | 1012.9 |
| 20260905112646 | 78 | 175 | 2.6 | 3.5 | 0.00 | 0.00 | 0.00 | 94 | 1012.9 |
| 20260905112146 | 78 | 230 | 1.7 | 2.6 | 0.00 | 0.00 | 0.00 | 93 | 1012.5 |
| 20260905111650 | 78 | 253 | 1.7 | 3.5 | 0.00 | 0.00 | 0.00 | 93 | 1012.5 |
| 20260905111146 | 78 | 274 | 0.0 | 2.6 | 0.00 | 0.00 | 0.00 | 94 | 1012.5 |
| 20260905110646 | 78 | 237 | 1.7 | 2.6 | 0.00 | 0.00 | 0.00 | 94 | 1012.2 |
| 20260905110147 | 78 | 23 | 0.9 | 2.6 | 0.00 | 0.00 | 0.00 | 94 | 1012.5 |
| 20260905105646 | 78 | 189 | 1.7 | 2.6 | 0.00 | 0.00 | 0.00 | 94 | 1012.2 |
| 20260905105146 | 78 | 282 | 1.7 | 3.5 | 0.00 | 0.00 | 0.00 | 94 | 1012.2 |
| 20260905104646 | 78 | 220 | 0.0 | 2.6 | 0.00 | 0.00 | 0.00 | 94 | 1012.2 |
| 20260905104146 | 78 | 81 | 0.0 | 0.0 | 0.00 | 0.00 | 0.00 | 94 | 1012.2 |
| 20260905103647 | 78 | 89 | 0.0 | 0.0 | 0.00 | 0.00 | 0.00 | 94 | 1012.2 |
| 20260905103147 | 78 | 360 | 0.0 | 0.9 | 0.00 | 0.00 | 0.00 | 93 | 1012.2 |
| 20260905102646 | 79 | 320 | 0.9 | 0.9 | 0.00 | 0.00 | 0.00 | 93 | 1012.2 |
| 20260905102146 | 79 | 284 | 1.7 | 1.7 | 0.00 | 0.00 | 0.00 | 93 | 1012.5 |
| 20260905101648 | 79 | 238 | 0.9 | 0.9 | 0.00 | 0.00 | 0.00 | 93 | 1012.5 |
| 20260905101146 | 79 | 212 | 0.0 | 0.9 | 0.00 | 0.00 | 0.00 | 93 | 1012.2 |
| 20260905100646 | 79 | 200 | 0.0 | 1.7 | 0.00 | 0.00 | 0.00 | 92 | 1012.5 |
| 20260905100146 | 79 | 205 | 0.0 | 1.7 | 0.00 | 0.00 | 0.00 | 92 | 1012.5 |
| 20260905095646 | 79 | 283 | 1.7 | 2.6 | 0.00 | 0.00 | 0.00 | 92 | 1012.5 |
| 20260905095147 | 79 | 308 | 1.7 | 1.7 | 0.00 | 0.00 | 0.00 | 92 | 1012.5 |
| 20260905094646 | 79 | 308 | 0.9 | 1.7 | 0.00 | 0.00 | 0.00 | 92 | 1012.5 |
| 20260905094146 | 79 | 20 | 0.0 | 1.7 | 0.00 | 0.00 | 0.00 | 93 | 1012.5 |
| 20260905093647 | 79 | 311 | 0.0 | 1.7 | 0.00 | 0.00 | 0.00 | 93 | 1012.5 |
| 20260905093146 | 79 | 309 | 0.0 | 0.9 | 0.00 | 0.00 | 0.00 | 93 | 1012.5 |
| 20260905092647 | 79 | 248 | 0.0 | 0.9 | 0.00 | 0.00 | 0.00 | 93 | 1012.5 |
| 20260905092147 | 79 | 141 | 0.0 | 0.0 | 0.00 | 0.00 | 0.00 | 92 | 1012.5 |
| 20260905091647 | 79 | 279 | 0.0 | 1.7 | 0.00 | 0.00 | 0.00 | 93 | 1012.5 |
| 20260905091146 | 79 | 333 | 0.0 | 1.7 | 0.00 | 0.00 | 0.00 | 92 | 1012.5 |
| 20260905090648 | 79 | 294 | 0.9 | 1.7 | 0.00 | 0.00 | 0.00 | 92 | 1012.5 |
| 20260905090147 | 79 | 276 | 0.0 | 1.7 | 0.00 | 0.00 | 0.00 | 93 | 1012.5 |
| 20260905085646 | 79 | 216 | 1.7 | 2.6 | 0.00 | 0.00 | 0.00 | 93 | 1012.2 |
| 20260905085146 | 79 | 197 | 1.7 | 1.7 | 0.00 | 0.00 | 0.00 | 93 | 1012.5 |
| 20260905084646 | 79 | 227 | 1.7 | 1.7 | 0.00 | 0.00 | 0.00 | 93 | 1012.5 |
| 20260905084147 | 79 | 256 | 0.0 | 1.7 | 0.00 | 0.00 | 0.00 | 93 | 1012.2 |
| 20260905083646 | 79 | 284 | 0.0 | 0.0 | 0.00 | 0.00 | 0.00 | 92 | 1012.5 |
| 20260905083146 | 79 | 322 | 0.0 | 0.9 | 0.00 | 0.00 | 0.00 | 93 | 1012.5 |
| 20260905082647 | 79 | 284 | 0.9 | 1.7 | 0.00 | 0.00 | 0.00 | 93 | 1012.5 |
| 20260905082146 | 79 | 287 | 0.9 | 1.7 | 0.00 | 0.00 | 0.00 | 93 | 1012.2 |
| 20260905081646 | 79 | 234 | 0.0 | 0.9 | 0.00 | 0.00 | 0.00 | 93 | 1012.2 |
| 20260905081146 | 79 | 207 | 0.0 | 0.9 | 0.00 | 0.00 | 0.00 | 93 | 1012.2 |
| 20260905080647 | 79 | 294 | 1.7 | 1.7 | 0.00 | 0.00 | 0.00 | 93 | 1012.2 |
| 20260905080147 | 79 | 275 | 1.7 | 1.7 | 0.00 | 0.00 | 0.00 | 93 | 1011.9 |
| 20260905075647 | 79 | 230 | 0.0 | 1.7 | 0.00 | 0.00 | 0.00 | 93 | 1012.2 |
| 20260905075147 | 79 | 221 | 0.9 | 1.7 | 0.00 | 0.00 | 0.00 | 93 | 1012.2 |
| 20260905074647 | 79 | 236 | 0.9 | 2.6 | 0.00 | 0.00 | 0.00 | 93 | 1012.2 |
| 20260905074146 | 79 | 326 | 0.0 | 1.7 | 0.00 | 0.00 | 0.00 | 93 | 1012.5 |
| 20260905073646 | 79 | 282 | 0.0 | 1.7 | 0.00 | 0.00 | 0.00 | 93 | 1012.2 |
| 20260905073146 | 78 | 224 | 0.0 | 1.7 | 0.00 | 0.00 | 0.00 | 93 | 1012.2 |
| 20260905072646 | 79 | 230 | 1.7 | 2.6 | 0.00 | 0.00 | 0.00 | 93 | 1012.2 |
| 20260905071742 | 79 | 278 | 0.9 | 3.5 | 0.00 | 0.00 | 0.00 | 93 | 1012.2 |
| 20260905071146 | 79 | 235 | 1.7 | 2.6 | 0.00 | 0.00 | 0.00 | 94 | 1012.5 |
| 20260905070646 | 79 | 277 | 0.9 | 3.5 | 0.00 | 0.00 | 0.00 | 94 | 1012.2 |
| 20260905070146 | 79 | 284 | 0.0 | 2.6 | 0.00 | 0.00 | 0.00 | 94 | 1012.2 |
| 20260905065646 | 79 | 208 | 1.7 | 2.6 | 0.00 | 0.00 | 0.00 | 94 | 1012.2 |
| 20260905065146 | 79 | 218 | 1.7 | 3.5 | 0.00 | 0.00 | 0.00 | 94 | 1011.9 |
| 20260905064647 | 79 | 238 | 2.6 | 4.3 | 0.00 | 0.00 | 0.00 | 94 | 1012.2 |
| 20260905064147 | 79 | 190 | 4.3 | 4.3 | 0.00 | 0.00 | 0.00 | 93 | 1012.2 |
| 20260905063647 | 79 | 175 | 2.6 | 3.5 | 0.00 | 0.00 | 0.00 | 93 | 1011.9 |
| 20260905063146 | 79 | 196 | 2.6 | 2.6 | 0.00 | 0.00 | 0.00 | 93 | 1011.9 |
| 20260905062646 | 79 | 207 | 1.7 | 3.5 | 0.00 | 0.00 | 0.00 | 93 | 1012.2 |
| 20260905062146 | 79 | 232 | 1.7 | 2.6 | 0.00 | 0.00 | 0.00 | 93 | 1012.2 |
| 20260905061648 | 79 | 223 | 1.7 | 2.6 | 0.00 | 0.00 | 0.00 | 93 | 1012.2 |
| 20260905061146 | 80 | 240 | 1.7 | 2.6 | 0.00 | 0.00 | 0.00 | 92 | 1012.5 |
| 20260905060647 | 80 | 272 | 1.7 | 1.7 | 0.00 | 0.00 | 0.00 | 93 | 1012.5 |
| 20260905060147 | 80 | 280 | 0.9 | 1.7 | 0.00 | 0.00 | 0.00 | 93 | 1012.2 |
| 20260905055646 | 79 | 330 | 0.0 | 1.7 | 0.00 | 0.00 | 0.00 | 93 | 1012.5 |
| 20260905055147 | 80 | 304 | 0.0 | 1.7 | 0.00 | 0.00 | 0.00 | 93 | 1012.2 |
| 20260905054646 | 80 | 232 | 0.0 | 0.9 | 0.00 | 0.00 | 0.00 | 93 | 1012.2 |
| 20260905054146 | 80 | 224 | 0.0 | 1.7 | 0.00 | 0.00 | 0.00 | 93 | 1012.2 |
| 20260905053646 | 80 | 180 | 1.7 | 1.7 | 0.00 | 0.00 | 0.00 | 93 | 1012.2 |
| 20260905053146 | 80 | 213 | 0.9 | 2.6 | 0.00 | 0.00 | 0.00 | 93 | 1012.5 |
| 20260905052646 | 80 | 185 | 1.7 | 2.6 | 0.00 | 0.00 | 0.00 | 93 | 1012.9 |
| 20260905052147 | 80 | 188 | 1.7 | 2.6 | 0.00 | 0.00 | 0.00 | 93 | 1012.5 |
| 20260905051646 | 80 | 193 | 1.7 | 1.7 | 0.00 | 0.00 | 0.00 | 93 | 1012.9 |
| 20260905051146 | 80 | 160 | 1.7 | 2.6 | 0.00 | 0.00 | 0.00 | 94 | 1012.9 |
| 20260905050202 | 80 | 207 | 1.7 | 2.6 | 0.00 | 0.00 | 0.00 | 92 | 1012.9 |
| 20260905045646 | 80 | 208 | 1.7 | 2.6 | 0.00 | 0.00 | 0.36 | 92 | 1012.9 |
| 20260905045147 | 80 | 201 | 0.9 | 2.6 | 0.00 | 0.00 | 0.36 | 92 | 1012.9 |
| 20260905044646 | 80 | 225 | 0.0 | 2.6 | 0.00 | 0.00 | 0.36 | 92 | 1012.5 |
| 20260905044147 | 80 | 221 | 0.9 | 1.7 | 0.00 | 0.00 | 0.36 | 92 | 1012.9 |
| 20260905043646 | 80 | 223 | 0.9 | 2.6 | 0.00 | 0.00 | 0.36 | 92 | 1012.5 |
| 20260905043146 | 80 | 198 | 2.6 | 2.6 | 0.00 | 0.00 | 0.36 | 92 | 1012.5 |
| 20260905042647 | 81 | 214 | 0.9 | 1.7 | 0.00 | 0.00 | 0.36 | 91 | 1012.5 |
| 20260905042146 | 81 | 241 | 1.7 | 2.6 | 0.00 | 0.00 | 0.36 | 91 | 1012.5 |
| 20260905041646 | 81 | 190 | 0.9 | 1.7 | 0.00 | 0.00 | 0.36 | 91 | 1012.9 |
| 20260905041147 | 81 | 174 | 0.0 | 2.6 | 0.00 | 0.00 | 0.36 | 90 | 1012.9 |
| 20260905040646 | 81 | 125 | 0.0 | 1.7 | 0.00 | 0.00 | 0.36 | 90 | 1012.9 |
| 20260905040146 | 82 | 39 | 0.9 | 2.6 | 0.00 | 0.00 | 0.36 | 89 | 1012.9 |
| 20260905035646 | 82 | 360 | 0.0 | 2.6 | 0.00 | 0.00 | 0.36 | 88 | 1012.9 |
| 20260905035147 | 82 | 129 | 0.0 | 0.9 | 0.00 | 0.00 | 0.36 | 88 | 1012.9 |
| 20260905034647 | 81 | 154 | 0.0 | 0.0 | 0.00 | 0.00 | 0.36 | 88 | 1012.9 |
| 20260905034146 | 81 | 151 | 0.9 | 1.7 | 0.00 | 0.00 | 0.36 | 88 | 1013.2 |
| 20260905033646 | 81 | 176 | 1.7 | 1.7 | 0.00 | 0.00 | 0.36 | 88 | 1013.2 |
| 20260905033148 | 82 | 171 | 0.9 | 1.7 | 0.00 | 0.00 | 0.36 | 88 | 1012.9 |
| 20260905032647 | 82 | 149 | 0.0 | 2.6 | 0.00 | 0.00 | 0.36 | 88 | 1012.9 |
| 20260905032146 | 81 | 189 | 1.7 | 2.6 | 0.00 | 0.00 | 0.36 | 88 | 1012.9 |
| 20260905031646 | 82 | 180 | 2.6 | 3.5 | 0.00 | 0.00 | 0.36 | 87 | 1013.2 |
| 20260905031147 | 82 | 164 | 0.9 | 4.3 | 0.00 | 0.00 | 0.36 | 87 | 1013.5 |
| 20260905030646 | 82 | 174 | 4.3 | 5.2 | 0.00 | 0.00 | 0.36 | 87 | 1013.5 |
| 20260905030147 | 82 | 209 | 1.7 | 2.6 | 0.00 | 0.00 | 0.36 | 88 | 1013.5 |
| 20260905025647 | 82 | 194 | 1.7 | 2.6 | 0.00 | 0.00 | 0.36 | 87 | 1013.5 |
| 20260905025146 | 82 | 176 | 1.7 | 2.6 | 0.00 | 0.00 | 0.36 | 87 | 1013.5 |
| 20260905024646 | 82 | 174 | 2.6 | 2.6 | 0.00 | 0.00 | 0.36 | 87 | 1013.5 |
| 20260905024147 | 82 | 165 | 1.7 | 2.6 | 0.00 | 0.00 | 0.36 | 88 | 1013.5 |
| 20260905023647 | 82 | 180 | 1.7 | 2.6 | 0.00 | 0.00 | 0.36 | 88 | 1013.5 |
| 20260905023146 | 82 | 175 | 0.9 | 3.5 | 0.00 | 0.00 | 0.36 | 87 | 1013.5 |
| 20260905022646 | 82 | 240 | 0.9 | 1.7 | 0.00 | 0.00 | 0.36 | 88 | 1013.2 |
| 20260905022146 | 82 | 211 | 0.9 | 1.7 | 0.00 | 0.00 | 0.36 | 88 | 1013.5 |
| 20260905021646 | 82 | 183 | 0.9 | 3.5 | 0.00 | 0.00 | 0.36 | 87 | 1013.2 |
| 20260905021146 | 83 | 187 | 1.7 | 3.5 | 0.00 | 0.00 | 0.36 | 87 | 1013.2 |
| 20260905020646 | 83 | 212 | 1.7 | 3.5 | 0.00 | 0.00 | 0.36 | 86 | 1013.2 |
| 20260905020146 | 83 | 201 | 0.9 | 2.6 | 0.00 | 0.00 | 0.36 | 85 | 1013.2 |
| 20260905015647 | 83 | 214 | 1.7 | 2.6 | 0.00 | 0.00 | 0.36 | 84 | 1013.2 |
| 20260905015146 | 83 | 187 | 1.7 | 1.7 | 0.00 | 0.00 | 0.36 | 84 | 1012.9 |
| 20260905014646 | 83 | 171 | 1.7 | 1.7 | 0.00 | 0.00 | 0.36 | 84 | 1012.9 |
| 20260905014146 | 83 | 180 | 0.9 | 1.7 | 0.00 | 0.00 | 0.36 | 83 | 1013.2 |
| 20260905013646 | 83 | 117 | 0.0 | 1.7 | 0.00 | 0.00 | 0.36 | 83 | 1012.9 |
| 20260905013146 | 84 | 162 | 0.9 | 1.7 | 0.00 | 0.00 | 0.36 | 82 | 1012.9 |
| 20260905012646 | 84 | 121 | 0.9 | 2.6 | 0.00 | 0.00 | 0.36 | 82 | 1012.9 |
| 20260905012146 | 84 | 179 | 1.7 | 1.7 | 0.00 | 0.00 | 0.36 | 81 | 1012.9 |
| 20260905011646 | 84 | 60 | 0.0 | 1.7 | 0.00 | 0.00 | 0.36 | 82 | 1012.9 |
| 20260905011146 | 84 | 22 | 0.0 | 0.9 | 0.00 | 0.00 | 0.36 | 82 | 1012.9 |
| 20260905010646 | 84 | 174 | 1.7 | 2.6 | 0.00 | 0.00 | 0.36 | 82 | 1012.9 |
| 20260905010146 | 84 | 181 | 1.7 | 1.7 | 0.00 | 0.00 | 0.36 | 82 | 1012.9 |
| 20260905005646 | 83 | 187 | 0.9 | 2.6 | 0.00 | 0.00 | 0.36 | 82 | 1012.9 |
| 20260905005147 | 84 | 189 | 1.7 | 2.6 | 0.00 | 0.00 | 0.36 | 82 | 1012.9 |
| 20260905004647 | 84 | 206 | 1.7 | 2.6 | 0.00 | 0.00 | 0.36 | 82 | 1012.9 |
| 20260905004147 | 84 | 186 | 0.9 | 2.6 | 0.00 | 0.00 | 0.36 | 83 | 1013.2 |
| 20260905003646 | 84 | 165 | 1.7 | 3.5 | 0.00 | 0.00 | 0.36 | 82 | 1012.9 |
| 20260905003146 | 84 | 156 | 2.6 | 2.6 | 0.00 | 0.00 | 0.36 | 81 | 1012.5 |
| 20260905002647 | 84 | 179 | 2.6 | 3.5 | 0.00 | 0.00 | 0.36 | 81 | 1012.9 |
| 20260905002146 | 84 | 172 | 1.7 | 4.3 | 0.00 | 0.00 | 0.36 | 81 | 1012.9 |
| 20260905001646 | 84 | 174 | 1.7 | 4.3 | 0.00 | 0.00 | 0.36 | 81 | 1012.9 |
| 20260905001146 | 84 | 145 | 1.7 | 4.3 | 0.00 | 0.00 | 0.36 | 81 | 1012.9 |
| 20260905000646 | 84 | 154 | 2.6 | 3.5 | 0.00 | 0.00 | 0.36 | 80 | 1012.9 |
| 20260905000147 | 84 | 165 | 2.6 | 5.2 | 0.00 | 0.00 | 0.36 | 81 | 1012.9 |
| 20260904235646 | 85 | 165 | 3.5 | 3.5 | 0.00 | 0.00 | 0.36 | 80 | 1012.9 |
| 20260904235146 | 86 | 157 | 0.9 | 3.5 | 0.00 | 0.00 | 0.36 | 78 | 1012.9 |
| 20260904234646 | 86 | 37 | 1.7 | 2.6 | 0.00 | 0.00 | 0.36 | 76 | 1012.9 |
| 20260904234146 | 86 | 334 | 1.7 | 2.6 | 0.00 | 0.00 | 0.36 | 76 | 1012.9 |
| 20260904233646 | 87 | 3 | 2.6 | 4.3 | 0.00 | 0.00 | 0.36 | 75 | 1012.5 |
| 20260904233146 | 87 | 351 | 1.7 | 3.5 | 0.00 | 0.00 | 0.36 | 75 | 1012.5 |
| 20260904232647 | 87 | 312 | 2.6 | 4.3 | 0.00 | 0.00 | 0.36 | 75 | 1012.5 |
| 20260904232146 | 87 | 286 | 3.5 | 3.5 | 0.00 | 0.00 | 0.36 | 73 | 1012.5 |
| 20260904231647 | 87 | 5 | 0.9 | 3.5 | 0.00 | 0.00 | 0.36 | 73 | 1012.5 |
| 20260904231146 | 87 | 354 | 1.7 | 4.3 | 0.00 | 0.00 | 0.36 | 73 | 1012.5 |
| 20260904230647 | 87 | 352 | 1.7 | 4.3 | 0.00 | 0.00 | 0.36 | 73 | 1012.5 |
| 20260904230147 | 88 | 347 | 3.5 | 6.1 | 0.00 | 0.00 | 0.36 | 71 | 1012.9 |
| 20260904225647 | 88 | 39 | 1.7 | 4.3 | 0.00 | 0.00 | 0.36 | 71 | 1012.5 |
| 20260904225146 | 88 | 321 | 1.7 | 4.3 | 0.00 | 0.00 | 0.36 | 70 | 1012.5 |
| 20260904224646 | 88 | 307 | 2.6 | 3.5 | 0.00 | 0.00 | 0.36 | 70 | 1012.5 |
| 20260904224147 | 88 | 76 | 1.7 | 5.2 | 0.00 | 0.00 | 0.36 | 72 | 1012.2 |
| 20260904223646 | 87 | 25 | 3.5 | 7.8 | 0.00 | 0.00 | 0.36 | 72 | 1012.5 |
| 20260904223147 | 87 | 353 | 3.5 | 6.1 | 0.00 | 0.00 | 0.36 | 73 | 1012.5 |
| 20260904222647 | 88 | 356 | 4.3 | 6.1 | 0.00 | 0.00 | 0.36 | 71 | 1012.5 |
| 20260904222147 | 88 | 347 | 2.6 | 5.2 | 0.00 | 0.00 | 0.36 | 69 | 1012.2 |
| 20260904221646 | 88 | 355 | 2.6 | 6.1 | 0.00 | 0.00 | 0.36 | 71 | 1012.2 |
| 20260904221146 | 87 | 332 | 3.5 | 5.2 | 0.00 | 0.00 | 0.36 | 73 | 1012.2 |
| 20260904220647 | 87 | 25 | 4.3 | 7.8 | 0.00 | 0.00 | 0.36 | 73 | 1012.2 |
| 20260904220146 | 87 | 343 | 4.3 | 6.1 | 0.00 | 0.00 | 0.36 | 72 | 1012.2 |
| 20260904215647 | 88 | 18 | 2.6 | 7.0 | 0.00 | 0.00 | 0.36 | 71 | 1012.2 |
| 20260904215146 | 87 | 335 | 3.5 | 7.8 | 0.00 | 0.00 | 0.36 | 72 | 1012.5 |
| 20260904214647 | 87 | 312 | 5.2 | 7.8 | 0.00 | 0.00 | 0.36 | 73 | 1012.5 |
| 20260904214146 | 87 | 45 | 2.6 | 6.1 | 0.00 | 0.00 | 0.36 | 72 | 1012.5 |
| 20260904213646 | 87 | 45 | 3.5 | 8.7 | 0.00 | 0.00 | 0.36 | 71 | 1012.2 |
| 20260904213146 | 87 | 337 | 2.6 | 6.1 | 0.00 | 0.00 | 0.36 | 70 | 1012.2 |
| 20260904212646 | 88 | 358 | 4.3 | 7.0 | 0.00 | 0.00 | 0.36 | 70 | 1012.5 |
| 20260904212146 | 88 | 340 | 4.3 | 7.0 | 0.00 | 0.00 | 0.36 | 70 | 1012.5 |
| 20260904211647 | 88 | 35 | 2.6 | 6.1 | 0.00 | 0.00 | 0.36 | 68 | 1012.5 |
| 20260904211147 | 88 | 3 | 2.6 | 8.7 | 0.00 | 0.00 | 0.36 | 68 | 1012.5 |
| 20260904210646 | 88 | 345 | 4.3 | 7.0 | 0.00 | 0.00 | 0.36 | 69 | 1012.9 |
| 20260904210146 | 88 | 354 | 3.5 | 6.1 | 0.00 | 0.00 | 0.36 | 71 | 1012.5 |
| 20260904205647 | 87 | 353 | 2.6 | 7.8 | 0.00 | 0.00 | 0.36 | 71 | 1012.2 |
| 20260904205147 | 88 | 342 | 3.5 | 7.0 | 0.00 | 0.00 | 0.36 | 72 | 1012.2 |
| 20260904204646 | 88 | 336 | 3.5 | 6.1 | 0.00 | 0.00 | 0.36 | 72 | 1012.5 |
| 20260904204146 | 87 | 348 | 3.5 | 6.1 | 0.00 | 0.00 | 0.36 | 71 | 1012.5 |
| 20260904203646 | 87 | 354 | 4.3 | 7.8 | 0.00 | 0.00 | 0.36 | 71 | 1012.5 |
| 20260904203146 | 87 | 39 | 4.3 | 7.0 | 0.00 | 0.00 | 0.36 | 73 | 1012.5 |
| 20260904202646 | 87 | 11 | 4.3 | 7.0 | 0.00 | 0.00 | 0.36 | 73 | 1012.5 |
| 20260904202148 | 87 | 345 | 2.6 | 7.0 | 0.00 | 0.00 | 0.36 | 72 | 1012.9 |
| 20260904201647 | 88 | 31 | 4.3 | 7.0 | 0.00 | 0.00 | 0.36 | 70 | 1012.9 |
| 20260904201146 | 88 | 356 | 5.2 | 5.2 | 0.00 | 0.00 | 0.36 | 69 | 1012.9 |
| 20260904200647 | 88 | 61 | 6.1 | 7.8 | 0.00 | 0.00 | 0.36 | 70 | 1012.9 |
| 20260904200146 | 88 | 339 | 1.7 | 6.1 | 0.00 | 0.00 | 0.36 | 70 | 1012.9 |
| 20260904195647 | 87 | 338 | 2.6 | 4.3 | 0.00 | 0.00 | 0.36 | 72 | 1012.9 |
| 20260904195147 | 87 | 4 | 3.5 | 7.8 | 0.00 | 0.00 | 0.36 | 73 | 1013.2 |
| 20260904194646 | 87 | 52 | 1.7 | 7.0 | 0.00 | 0.00 | 0.36 | 73 | 1012.9 |
| 20260904194146 | 87 | 323 | 2.6 | 7.8 | 0.00 | 0.00 | 0.36 | 74 | 1013.2 |
| 20260904193646 | 87 | 46 | 6.1 | 7.8 | 0.00 | 0.00 | 0.36 | 73 | 1013.2 |
| 20260904193146 | 86 | 5 | 2.6 | 7.0 | 0.00 | 0.00 | 0.36 | 75 | 1013.5 |
| 20260904192647 | 87 | 53 | 6.1 | 9.6 | 0.00 | 0.00 | 0.36 | 74 | 1013.5 |
| 20260904192147 | 86 | 48 | 6.1 | 7.8 | 0.00 | 0.00 | 0.36 | 76 | 1013.5 |
| 20260904191648 | 87 | 42 | 6.1 | 8.7 | 0.00 | 0.00 | 0.36 | 75 | 1013.5 |
| 20260904191147 | 87 | 32 | 6.1 | 7.8 | 0.00 | 0.00 | 0.36 | 74 | 1013.5 |
| 20260904190647 | 87 | 354 | 2.6 | 7.8 | 0.00 | 0.00 | 0.36 | 76 | 1013.9 |
| 20260904190147 | 86 | 30 | 4.3 | 7.0 | 0.00 | 0.00 | 0.36 | 77 | 1013.9 |
| 20260904185646 | 86 | 350 | 4.3 | 7.8 | 0.00 | 0.00 | 0.36 | 78 | 1013.9 |
| 20260904185146 | 86 | 16 | 5.2 | 7.8 | 0.00 | 0.00 | 0.36 | 78 | 1013.9 |
| 20260904184646 | 86 | 36 | 6.1 | 9.6 | 0.00 | 0.00 | 0.36 | 79 | 1014.2 |
| 20260904184147 | 86 | 336 | 6.1 | 7.8 | 0.00 | 0.00 | 0.36 | 78 | 1014.2 |
| 20260904183647 | 86 | 359 | 3.5 | 8.7 | 0.00 | 0.00 | 0.36 | 77 | 1014.2 |
| 20260904183146 | 86 | 350 | 6.1 | 9.6 | 0.00 | 0.00 | 0.36 | 79 | 1014.2 |
| 20260904182646 | 87 | 22 | 5.2 | 6.1 | 0.00 | 0.00 | 0.36 | 77 | 1014.2 |
| 20260904182147 | 86 | 20 | 4.3 | 8.7 | 0.00 | 0.00 | 0.36 | 76 | 1014.2 |
| 20260904181646 | 86 | 326 | 2.6 | 7.8 | 0.00 | 0.00 | 0.36 | 77 | 1014.2 |
| 20260904181147 | 87 | 336 | 4.3 | 8.7 | 0.00 | 0.00 | 0.36 | 74 | 1014.6 |
| 20260904180647 | 87 | 353 | 2.6 | 7.8 | 0.00 | 0.00 | 0.36 | 75 | 1014.6 |
| 20260904180148 | 86 | 11 | 7.0 | 7.8 | 0.00 | 0.00 | 0.36 | 77 | 1014.6 |
| 20260904175647 | 86 | 346 | 5.2 | 7.8 | 0.00 | 0.00 | 0.36 | 76 | 1014.6 |
| 20260904175147 | 85 | 20 | 3.5 | 8.7 | 0.00 | 0.00 | 0.36 | 77 | 1014.6 |
| 20260904174647 | 85 | 47 | 6.1 | 7.8 | 0.00 | 0.00 | 0.36 | 77 | 1014.6 |
| 20260904174148 | 84 | 8 | 3.5 | 6.1 | 0.00 | 0.00 | 0.36 | 80 | 1014.9 |
| 20260904173647 | 84 | 41 | 7.0 | 9.6 | 0.00 | 0.00 | 0.36 | 80 | 1014.6 |
| 20260904173147 | 84 | 21 | 5.2 | 7.0 | 0.00 | 0.00 | 0.36 | 81 | 1014.6 |
| 20260904172646 | 84 | 44 | 2.6 | 6.1 | 0.00 | 0.00 | 0.36 | 82 | 1014.6 |
| 20260904172146 | 84 | 33 | 5.2 | 7.0 | 0.00 | 0.00 | 0.36 | 81 | 1014.6 |
| 20260904171646 | 84 | 7 | 1.7 | 7.8 | 0.00 | 0.00 | 0.36 | 83 | 1014.6 |
| 20260904171146 | 84 | 24 | 6.1 | 9.6 | 0.00 | 0.00 | 0.36 | 83 | 1014.6 |
| 20260904170646 | 84 | 345 | 0.9 | 8.7 | 0.00 | 0.00 | 0.36 | 84 | 1014.9 |
| 20260904170147 | 84 | 11 | 3.5 | 7.0 | 0.00 | 0.00 | 0.36 | 83 | 1014.2 |
| 20260904165646 | 84 | 51 | 4.3 | 7.8 | 0.00 | 0.00 | 0.36 | 81 | 1014.6 |
| 20260904165147 | 84 | 8 | 2.6 | 4.3 | 0.00 | 0.00 | 0.36 | 82 | 1014.6 |
| 20260904164646 | 84 | 27 | 5.2 | 8.7 | 0.00 | 0.00 | 0.36 | 82 | 1014.6 |
| 20260904164146 | 84 | 38 | 5.2 | 7.0 | 0.00 | 0.00 | 0.36 | 81 | 1014.9 |
| 20260904163646 | 84 | 1 | 1.7 | 7.0 | 0.00 | 0.00 | 0.36 | 82 | 1014.9 |
| 20260904163146 | 84 | 29 | 4.3 | 6.1 | 0.00 | 0.00 | 0.36 | 82 | 1015.2 |
| 20260904162646 | 84 | 23 | 4.3 | 4.3 | 0.00 | 0.00 | 0.36 | 83 | 1015.2 |
| 20260904162146 | 84 | 36 | 3.5 | 7.8 | 0.00 | 0.00 | 0.36 | 83 | 1014.9 |
| 20260904161646 | 84 | 35 | 3.5 | 6.1 | 0.00 | 0.00 | 0.36 | 83 | 1015.2 |
| 20260904161147 | 84 | 33 | 3.5 | 5.2 | 0.00 | 0.00 | 0.36 | 83 | 1015.2 |
| 20260904160647 | 84 | 355 | 2.6 | 4.3 | 0.00 | 0.00 | 0.36 | 84 | 1015.2 |
| 20260904160146 | 83 | 348 | 1.7 | 5.2 | 0.00 | 0.00 | 0.36 | 84 | 1015.2 |
| 20260904155649 | 83 | 358 | 1.7 | 6.1 | 0.00 | 0.00 | 0.36 | 85 | 1015.2 |
| 20260904155146 | 83 | 324 | 4.3 | 7.0 | 0.00 | 0.00 | 0.36 | 84 | 1015.2 |
| 20260904154646 | 84 | 53 | 4.3 | 7.0 | 0.00 | 0.00 | 0.36 | 85 | 1015.2 |
| 20260904154149 | 83 | 16 | 4.3 | 4.3 | 0.00 | 0.00 | 0.36 | 86 | 1014.9 |
| 20260904153647 | 83 | 354 | 1.7 | 6.1 | 0.00 | 0.00 | 0.36 | 86 | 1014.9 |
| 20260904153149 | 83 | 20 | 2.6 | 4.3 | 0.00 | 0.00 | 0.36 | 88 | 1014.9 |
| 20260904152646 | 82 | 350 | 2.6 | 5.2 | 0.00 | 0.00 | 0.36 | 88 | 1014.9 |
| 20260904152146 | 82 | 350 | 2.6 | 5.2 | 0.00 | 0.00 | 0.36 | 88 | 1014.9 |
| 20260904151646 | 82 | 14 | 2.6 | 5.2 | 0.00 | 0.00 | 0.36 | 89 | 1015.2 |
| 20260904151147 | 82 | 360 | 2.6 | 5.2 | 0.00 | 0.00 | 0.36 | 89 | 1015.2 |
| 20260904150646 | 82 | 12 | 2.6 | 5.2 | 0.00 | 0.00 | 0.36 | 89 | 1015.2 |
| 20260904150146 | 82 | 350 | 1.7 | 6.1 | 0.00 | 0.00 | 0.36 | 88 | 1015.2 |
| 20260904145646 | 82 | 340 | 2.6 | 3.5 | 0.00 | 0.00 | 0.36 | 88 | 1015.2 |
| 20260904145146 | 82 | 46 | 3.5 | 4.3 | 0.00 | 0.00 | 0.36 | 87 | 1014.9 |
| 20260904144647 | 82 | 360 | 1.7 | 4.3 | 0.00 | 0.00 | 0.36 | 87 | 1014.9 |
| 20260904144148 | 81 | 4 | 2.6 | 4.3 | 0.00 | 0.00 | 0.36 | 88 | 1015.2 |
| 20260904143647 | 81 | 45 | 3.5 | 5.2 | 0.00 | 0.00 | 0.36 | 88 | 1014.9 |
| 20260904143146 | 81 | 48 | 3.5 | 4.3 | 0.00 | 0.00 | 0.36 | 89 | 1014.9 |
| 20260904142646 | 80 | 303 | 1.7 | 5.2 | 0.00 | 0.00 | 0.36 | 90 | 1014.9 |
| 20260904142146 | 80 | 61 | 3.5 | 4.3 | 0.00 | 0.00 | 0.36 | 90 | 1014.9 |
| 20260904141648 | 79 | 69 | 1.7 | 2.6 | 0.00 | 0.00 | 0.36 | 90 | 1014.9 |
| 20260904141146 | 80 | 70 | 2.6 | 3.5 | 0.00 | 0.00 | 0.36 | 90 | 1014.9 |
| 20260904140647 | 79 | 47 | 2.6 | 4.3 | 0.00 | 0.00 | 0.36 | 90 | 1014.6 |
| 20260904140147 | 79 | 96 | 0.9 | 3.5 | 0.00 | 0.00 | 0.36 | 90 | 1014.9 |
| 20260904135647 | 79 | 26 | 0.0 | 1.7 | 0.00 | 0.00 | 0.36 | 90 | 1014.9 |
| 20260904135146 | 78 | 67 | 1.7 | 3.5 | 0.00 | 0.00 | 0.36 | 90 | 1014.9 |
| 20260904134647 | 78 | 7 | 2.6 | 5.2 | 0.00 | 0.00 | 0.36 | 90 | 1014.6 |
| 20260904134147 | 78 | 100 | 2.6 | 4.3 | 0.00 | 0.00 | 0.36 | 91 | 1014.6 |
| 20260904133646 | 77 | 342 | 2.6 | 5.2 | 0.00 | 0.00 | 0.36 | 92 | 1014.2 |
| 20260904133147 | 77 | 340 | 6.1 | 8.7 | 0.00 | 0.00 | 0.36 | 92 | 1014.2 |
| 20260904132647 | 76 | 320 | 3.5 | 7.0 | 0.00 | 0.00 | 0.36 | 92 | 1014.2 |
| 20260904132146 | 76 | 298 | 4.3 | 5.2 | 0.00 | 0.00 | 0.36 | 92 | 1014.2 |
| 20260904131646 | 76 | 316 | 1.7 | 4.3 | 0.00 | 0.00 | 0.36 | 93 | 1014.2 |
| 20260904131147 | 76 | 305 | 3.5 | 5.2 | 0.00 | 0.00 | 0.36 | 92 | 1014.2 |
| 20260904130646 | 75 | 8 | 2.6 | 6.1 | 0.00 | 0.00 | 0.36 | 94 | 1014.2 |
| 20260904130146 | 75 | 317 | 0.9 | 3.5 | 0.00 | 0.00 | 0.36 | 94 | 1014.2 |
| 20260904125647 | 75 | 275 | 1.7 | 3.5 | 0.00 | 0.00 | 0.36 | 94 | 1014.2 |
| 20260904125147 | 75 | 314 | 2.6 | 4.3 | 0.00 | 0.00 | 0.36 | 94 | 1014.2 |
| 20260904124648 | 75 | 293 | 1.7 | 4.3 | 0.00 | 0.00 | 0.36 | 95 | 1014.2 |
| 20260904124147 | 75 | 294 | 1.7 | 2.6 | 0.02 | 0.00 | 0.36 | 95 | 1014.2 |
| 20260904123647 | 75 | 229 | 1.7 | 3.5 | 0.02 | 0.00 | 0.36 | 94 | 1014.2 |
| 20260904123146 | 75 | 282 | 2.6 | 4.3 | 0.00 | 0.00 | 0.36 | 94 | 1014.2 |
| 20260904122647 | 74 | 335 | 5.2 | 7.8 | 0.02 | 0.00 | 0.36 | 94 | 1014.2 |
| 20260904122147 | 74 | 339 | 6.1 | 7.8 | 0.05 | 0.00 | 0.36 | 95 | 1014.2 |
| 20260904121646 | 74 | 347 | 5.2 | 10.4 | 0.02 | 0.00 | 0.35 | 95 | 1014.2 |
| 20260904121148 | 74 | 349 | 2.6 | 6.1 | 0.02 | 0.00 | 0.35 | 94 | 1014.2 |